Volver al catálogo

STARLINK-35077

ActivoComunicacionesSSO
NORAD 65529·PAYLOAD·🇺🇸 United States

Lanzado Sep 6, 2025 desde Cape Canaveral Space Force Station

Loading…

Próximos Pases (próximas 24 horas)

TLE

ActualizadoSource: CelesTrak SupGP

Época: Sep 15, 2026, 02:24 UTC

1 65529C 25200K   26258.10048611  .00052033  00000+0  16154-2 0  2589
2 65529  97.2853 324.5062 0000993  81.1693 146.7543 15.33409511    17

Sigue STARLINK-35077 en tiempo real con AllMySat

Download on the App Store